NOAA 17 DEB, 48722

Orbit data source: Space-Track

NOAA 17 DEB, 48722 is space debris in SSO originally from a launch on Mon, 24 Jun 2002 UTC launched from the Air Force Western Test Range (AFWTR). Debris objects in space refer to the collection of defunct objects orbiting the Earth. Examples of debris include non-operational satellites, rocket bodies, and fragments generated from explosions, collisions, or faulty payload assembly.

Loading next visibility...
Identifier
48722, 2002-032BF
Orbit
SSO
Country
Flag of USUS
Related business
Manufacturer
Unknown
Mission
Spacecraft
Bus & Motor
Unknown
Mass
Unknown
Launch date (UTC)
2002-06-24 (24 years ago)
Launch vehicle
Unknown
Launch site
Air Force Western Test Range (AFWTR)
Object type
Payload
Rocket body
Debris
Shape & HBR
Unknown shape, 0.1 m
Radar Cross Section
Medium (>0.1 m² and <1 m²)

Expand to show TLE details & history
Last TLE update: 2 days ago

TLE from 2 days ago
0 NOAA 17 DEB
1 48722U 02032BF  26171.05954103  .00025139  00000-0  23885-2 0  9992
2 48722  98.6922 206.9511 0006876 270.7925  89.2504 14.93456809278389
Epoch: 2026-06-20T01:25Z
TLE epoch observation values (Epoch: 2026-06-20T01:25:44.344Z)
Latitude
-0.00005°
Longitude
-82.76326°
Altitude
590.122 km
Speed
7.565 km/s
True Right ascension
13h 47m 48s
True Declination
0° 00' 00"
Sunlit
Object was in full shadow at epoch
Visualization orbit readout
Latitude
Unknown
Longitude
Unknown
Altitude
Unknown
Speed
Unknown
Apparent Right ascension
Unknown
Apparent Declination
Unknown
Sunlit
N/A
Visualization observer readout
Local Sidereal Time
21:36:33
Azimuth
Unknown
Elevation
Unknown
Doppler factor
Unknown
Orbital elements
Apogee altitude
589.014 km
Perigee altitude
579.44 km
Semi-major axis
6,962.364 km
Eccentricity
0.00069
Inclination
98.6922°
RAAN
206.9511°
Arg. of periapsis
270.7925°
True anomaly
89.32919°
Mean anomaly
89.2504°
Eccentric anomaly
89.28979°
Mean motion
3.73601 °/min
Orbital period
96.36 mins
BSTAR
0.0023885
Loading maneuver chart data...
Computing Atmospheric mass density...

Documentation

Showing up to 5 results
|